Find Starlink 33678

NORAD ID: 63509 Int'l Des: 2025-071 Owner: SPXS Country: US Constellation: starlink operational
LEOCIRCULAR

Live-Position

3D-Globus wird geladen...

Über Starlink 33678

Beschreibung wird geladen...

Nächste Überflüge

Passes for default location (London). Set your location on the main map for personalized predictions.

Höhenverlauf

Loading altitude history...

Zweizeiliger Elementsatz

1 63509U 25071S 26124.61953206 .00025492 00000-0 83018-3 0 9990
2 63509 53.1594 240.0511 0000998 73.0754 287.0356 15.31709635 61061
Epoch: 4. Mai 2026 • Age: 10 hours

Aktueller Status

Höhe 474.1 km
Geschwindigkeit 7.63 km/s
Subsatellitenpunkt 41.46°N, 141.96°E
Startdatum 7. Apr. 2025
Alter 1 years
Typ internet

Technische Details

Klassifizierung Payload
Masse 575.00 kg
Trockenmasse 530.00 kg
Gesamtmasse 575.00 kg
Länge 0.30 m
Durchmesser 4.10 m
Spannweite 29.00 m
Form Box + pan
Hersteller SPXS
Bus-Typ Starlink V2MO
Phasenstatus In Orbit
Besitzer/Staat SPXS/US

Most Searched